Time,TemperatureF,DewpointF,PressureIn,WindDirection,WindDirectionDegrees,WindSpeedMPH,WindSpeedGustMPH,Humidity,HourlyPrecipIn,Conditions,Clouds,dailyrainin,SoftwareType,DateUTC
2013-01-08 07:02:00,40.0,40.0,30.16,SSW,213,0.0,0.0,99,0.00,,,0.00,,2013-01-08 15:02:00,
2013-01-08 07:12:00,40.0,40.0,30.16,SSW,213,0.0,0.0,99,0.00,,,0.00,,2013-01-08 15:12:00,
2013-01-08 07:22:00,40.0,40.0,30.17,SSW,213,0.0,0.0,99,0.00,,,0.00,,2013-01-08 15:22:00,
2013-01-08 07:32:00,40.0,40.0,30.16,SSW,213,0.0,0.0,99,0.00,,,0.00,,2013-01-08 15:32:00,
2013-01-08 07:42:00,40.0,40.0,30.16,SSW,213,0.0,0.0,99,0.00,,,0.00,,2013-01-08 15:42:00,
2013-01-08 07:52:00,41.0,41.0,30.16,SSW,213,0.0,0.0,99,0.00,,,0.00,,2013-01-08 15:52:00,
2013-01-08 08:02:00,39.0,38.0,30.17,SSW,213,0.0,0.0,98,0.00,,,0.00,,2013-01-08 16:02:00,
2013-01-08 08:12:00,39.0,38.0,30.17,SSW,213,0.0,0.0,98,0.00,,,0.00,,2013-01-08 16:12:00,
2013-01-08 08:22:00,39.0,38.0,30.17,SSW,213,0.0,0.0,98,0.00,,,0.00,,2013-01-08 16:22:00,
2013-01-08 08:33:00,39.0,38.0,30.17,SSW,213,0.0,0.0,98,0.00,,,0.00,,2013-01-08 16:33:00,
2013-01-08 08:42:00,39.0,38.0,30.17,SSW,213,0.0,0.0,98,0.00,,,0.00,,2013-01-08 16:42:00,
2013-01-08 08:52:00,39.0,39.0,30.18,SSW,213,0.0,0.0,99,0.00,,,0.00,,2013-01-08 16:52:00,
2013-01-08 09:02:00,40.0,40.0,30.19,SSW,213,0.0,0.0,99,0.00,,,0.00,,2013-01-08 17:02:00,
2013-01-08 09:12:00,40.0,40.0,30.19,SSW,213,0.0,0.0,99,0.00,,,0.00,,2013-01-08 17:12:00,
2013-01-08 09:22:00,40.0,40.0,30.19,SSW,213,0.0,0.0,99,0.00,,,0.00,,2013-01-08 17:22:00,
2013-01-08 09:33:00,43.0,43.0,30.19,SSW,213,0.0,1.0,99,0.00,,,0.00,,2013-01-08 17:33:00,
2013-01-08 09:43:00,43.0,43.0,30.19,SSW,213,0.0,1.0,99,0.00,,,0.00,,2013-01-08 17:43:00,
2013-01-08 09:53:00,46.0,46.0,30.19,SSW,213,0.0,0.0,99,0.00,,,0.00,,2013-01-08 17:53:00,
2013-01-08 10:03:00,48.0,48.0,30.19,SSW,213,0.0,0.0,99,0.00,,,0.00,,2013-01-08 18:03:00,
2013-01-08 10:12:00,48.0,48.0,30.19,SSW,213,0.0,0.0,99,0.00,,,0.00,,2013-01-08 18:12:00,
2013-01-08 10:22:00,49.0,49.0,30.20,SSW,213,0.0,0.0,99,0.00,,,0.00,,2013-01-08 18:22:00,
2013-01-08 10:33:00,50.0,49.0,30.20,SSW,213,0.0,0.0,98,0.00,,,0.00,,2013-01-08 18:33:00,
2013-01-08 10:43:00,50.0,49.0,30.20,SSW,213,0.0,0.0,98,0.00,,,0.00,,2013-01-08 18:43:00,
2013-01-08 10:52:00,52.0,50.0,30.19,SSW,213,0.0,0.0,93,0.00,,,0.00,,2013-01-08 18:52:00,
2013-01-08 11:02:00,52.0,49.0,30.20,SSW,213,0.0,0.0,90,0.00,,,0.00,,2013-01-08 19:02:00,
2013-01-08 11:12:00,52.0,49.0,30.20,SSW,213,0.0,0.0,90,0.00,,,0.00,,2013-01-08 19:12:00,
2013-01-08 11:22:00,52.0,49.0,30.19,WSW,247,1.0,4.0,88,0.00,,,0.00,,2013-01-08 19:22:00,
2013-01-08 11:32:00,53.0,49.0,30.18,ENE,57,1.0,3.0,85,0.00,,,0.00,,2013-01-08 19:32:00,
2013-01-08 11:42:00,53.0,49.0,30.18,ENE,57,1.0,3.0,85,0.00,,,0.00,,2013-01-08 19:42:00,
2013-01-08 11:52:00,54.0,50.0,30.17,SSW,206,1.0,2.0,87,0.00,,,0.00,,2013-01-08 19:52:00,
2013-01-08 12:02:00,56.0,51.0,30.16,SW,221,1.0,2.0,83,0.00,,,0.00,,2013-01-08 20:02:00,
2013-01-08 12:12:00,56.0,51.0,30.16,SW,221,1.0,2.0,83,0.00,,,0.00,,2013-01-08 20:12:00,
2013-01-08 12:22:00,57.0,51.0,30.16,WSW,257,1.0,3.0,81,0.00,,,0.00,,2013-01-08 20:22:00,
2013-01-08 12:32:00,57.0,50.0,30.15,NW,313,1.0,3.0,77,0.00,,,0.00,,2013-01-08 20:32:00,
2013-01-08 12:43:00,57.0,50.0,30.15,NW,313,1.0,3.0,77,0.00,,,0.00,,2013-01-08 20:43:00,
2013-01-08 12:53:00,58.0,50.0,30.14,South,184,1.0,3.0,75,0.00,,,0.00,,2013-01-08 20:53:00,
2013-01-08 13:02:00,60.0,51.0,30.14,South,183,1.0,3.0,71,0.00,,,0.00,,2013-01-08 21:02:00,
2013-01-08 13:12:00,60.0,51.0,30.14,South,183,1.0,3.0,71,0.00,,,0.00,,2013-01-08 21:12:00,
2013-01-08 13:22:00,60.0,50.0,30.12,SSE,164,2.0,3.0,70,0.00,,,0.00,,2013-01-08 21:22:00,
2013-01-08 13:32:00,61.0,50.0,30.12,SW,224,1.0,2.0,66,0.00,,,0.00,,2013-01-08 21:32:00,
2013-01-08 13:42:00,61.0,50.0,30.12,SW,224,1.0,2.0,66,0.00,,,0.00,,2013-01-08 21:42:00,
2013-01-08 13:52:00,61.0,50.0,30.12,SW,224,1.0,2.0,66,0.00,,,0.00,,2013-01-08 21:52:00,
2013-01-08 14:02:00,61.0,50.0,30.12,SW,224,1.0,2.0,66,0.00,,,0.00,,2013-01-08 22:02:00,
2013-01-08 16:33:00,55.0,49.0,30.11,South,186,0.0,0.0,80,0.00,,,0.00,,2013-01-09 00:33:00,
2013-01-08 16:43:00,55.0,49.0,30.11,South,186,0.0,0.0,80,0.00,,,0.00,,2013-01-09 00:43:00,
2013-01-08 16:52:00,54.0,49.0,30.10,South,186,0.0,0.0,84,0.00,,,0.00,,2013-01-09 00:52:00,
2013-01-08 17:02:00,53.0,49.0,30.10,South,186,0.0,0.0,86,0.00,,,0.00,,2013-01-09 01:02:00,
2013-01-08 17:12:00,53.0,49.0,30.10,South,186,0.0,0.0,86,0.00,,,0.00,,2013-01-09 01:12:00,
2013-01-08 17:22:00,52.0,49.0,30.09,South,186,0.0,0.0,88,0.00,,,0.00,,2013-01-09 01:22:00,
2013-01-08 17:32:00,50.0,47.0,30.09,South,186,0.0,0.0,89,0.00,,,0.00,,2013-01-09 01:32:00,
2013-01-08 17:42:00,50.0,47.0,30.09,South,186,0.0,0.0,89,0.00,,,0.00,,2013-01-09 01:42:00,
2013-01-08 17:52:00,50.0,47.0,30.09,South,186,0.0,0.0,90,0.00,,,0.00,,2013-01-09 01:52:00,
2013-01-08 18:02:00,49.0,46.0,30.09,South,184,0.0,0.0,91,0.00,,,0.00,,2013-01-09 02:02:00,
2013-01-08 18:12:00,49.0,46.0,30.09,South,184,0.0,0.0,91,0.00,,,0.00,,2013-01-09 02:12:00,
2013-01-08 18:22:00,48.0,46.0,30.10,South,184,0.0,0.0,92,0.00,,,0.00,,2013-01-09 02:22:00,
2013-01-08 18:32:00,47.0,45.0,30.10,South,184,0.0,0.0,92,0.00,,,0.00,,2013-01-09 02:32:00,
2013-01-08 18:42:00,47.0,45.0,30.10,South,184,0.0,0.0,92,0.00,,,0.00,,2013-01-09 02:42:00,
2013-01-08 18:52:00,46.0,44.0,30.10,South,184,0.0,0.0,94,0.00,,,0.00,,2013-01-09 02:52:00,
2013-01-08 19:02:00,46.0,44.0,30.11,South,184,0.0,0.0,94,0.00,,,0.00,,2013-01-09 03:02:00,
2013-01-08 19:12:00,46.0,44.0,30.11,South,184,0.0,0.0,94,0.00,,,0.00,,2013-01-09 03:12:00,
2013-01-08 19:22:00,45.0,44.0,30.10,South,184,0.0,0.0,95,0.00,,,0.00,,2013-01-09 03:22:00,
2013-01-08 19:32:00,45.0,44.0,30.11,South,184,0.0,0.0,95,0.00,,,0.00,,2013-01-09 03:32:00,
2013-01-08 19:42:00,45.0,44.0,30.11,South,184,0.0,0.0,95,0.00,,,0.00,,2013-01-09 03:42:00,
2013-01-08 19:52:00,44.0,43.0,30.11,South,184,0.0,0.0,95,0.00,,,0.00,,2013-01-09 03:52:00,
2013-01-08 20:02:00,44.0,43.0,30.11,South,184,0.0,0.0,95,0.00,,,0.00,,2013-01-09 04:02:00,
2013-01-08 20:12:00,44.0,43.0,30.11,South,184,0.0,0.0,95,0.00,,,0.00,,2013-01-09 04:12:00,